[[{"header":{"parameterUnit":"m.s-1","parameterCategory":1,"la1":30.2991,"la2":30.254,"lo1":-89.0895,"lo2":-89.0444,"dy":0.0017,"dx":0.0017,"nx":28,"ny":28,"refTime":"2025-04-17T09:00:00:Z","depth":0,"parameterNumber":2,"parameterNumberName":"U-component_of_WINDS"},"data":[0,0,0,0,0,0,0,0,0,0,0,0,0,0,0,0,0,0,0,0,0,0,0,0,0,0,0,0,0,0,0,0,0,0,0,0,0,0,0,0,0,0,0,0,0,0,0,0,0,0,0,0,0,0,0,0,0,0,0.0848,0.0848,0,0.0863,0.0863,0.0864,0.086,0.086,0.0859,0.0859,0.0873,0.0874,0.0874,0,0,0,0,0,0,0,0,0,0,0,0,0,0.0815,0.0815,0.0848,0.0848,0.0849,0.0863,0.0863,0.0864,0.086,0.086,0.0859,0.0859,0.0873,0.0874,0.0874,0,0,0,0,0,0,0,0,0,0,0,0,0,0.0829,0.0815,0.0848,0.0849,0.0849,0.0863,0.0863,0.0864,0.086,0.086,0.0859,0.0859,0.0873,0.0874,0.0875,0.0889,0,0,0.0878,0.0878,0,0,0,0,0,0,0,0,0.0829,0.0831,0.0848,0.0849,0.0849,0.0859,0.0857,0.0872,0.086,0.0856,0.0859,0.0858,0.0869,0.087,0.0874,0.089,0.089,0.0878,0.0878,0.0879,0.0879,0,0,0,0,0,0,0,0.0827,0.083,0.0854,0.0849,0.0849,0.0847,0.0849,0.086,0.0864,0.0856,0.0856,0.0858,0.0869,0.0873,0.0874,0.0891,0.0878,0.0878,0.0879,0.0879,0.0918,0.0918,0,0,0,0,0,0,0.0827,0.0829,0.0854,0.0855,0.0837,0.0848,0.085,0.0856,0.0864,0.0865,0.0858,0.0857,0.0871,0.0873,0.0875,0.0891,0.0879,0.088,0.088,0.0918,0.0918,0.0919,0,0,0,0,0,0,0.0826,0.0829,0.0853,0.0842,0.0845,0.0849,0.0856,0.0857,0.0861,0.0866,0.0867,0.0861,0.0871,0.0873,0.0885,0.0892,0.088,0.0881,0.0917,0.0918,0.0918,0.0925,0,0,0,0,0,0,0.0825,0.0829,0.0835,0.0842,0.0845,0.0864,0.0857,0.0857,0.0863,0.0862,0.0869,0.087,0.0871,0.0884,0.0886,0.0893,0.0882,0.0917,0.0917,0.0918,0.0924,0.0926,0.0927,0,0,0,0,0,0.0824,0.0836,0.0835,0.0838,0.0853,0.0865,0.0866,0.0868,0.0863,0.0869,0.0872,0.087,0.0891,0.0885,0.0888,0.0895,0.0916,0.0917,0.0918,0.0924,0.0925,0.0927,0,0,0,0,0,0,0.0829,0.0837,0.0836,0.0851,0.0857,0.0864,0.0871,0.087,0.0877,0.0876,0.0877,0.0879,0.0891,0.0894,0.0888,0.0908,0.0903,0.0904,0.0906,0.0908,0.0909,0.0908,0.0882,0,0,0,0,0,0.0832,0.0841,0.0847,0.086,0.0863,0.0867,0.0872,0.0872,0.0878,0.0881,0.0885,0.089,0.0898,0.0903,0.0911,0.0925,0.0926,0.0931,0.0932,0.0933,0.0934,0.0941,0.0943,0.0922,0.0922,0.0922,0,0,0.0838,0.0844,0.0849,0.0861,0.0866,0.0874,0.0869,0.0878,0.0884,0.0882,0.0894,0.0897,0.0903,0.0916,0.0922,0.0919,0.0941,0.0935,0.0936,0.0936,0.0942,0.0944,0.0946,0.0923,0.0922,0.0922,0,0,0.0853,0.0859,0.0869,0.0874,0.0882,0.0884,0.0886,0.0893,0.0895,0.0907,0.0905,0.0912,0.0926,0.093,0.0934,0.095,0.0948,0.0952,0.096,0.0966,0.0967,0.0969,0.0974,0.0975,0.0954,0.0954,0.0954,0,0.086,0.0873,0.0875,0.0884,0.0889,0.0888,0.0898,0.0902,0.0912,0.0915,0.0911,0.0928,0.0932,0.0945,0.0949,0.0953,0.0955,0.0951,0.0967,0.0969,0.097,0.0974,0.0976,0.0954,0.0954,0.0954,0.0954,0,0.088,0.0889,0.0897,0.0906,0.0912,0.0921,0.0924,0.0929,0.0929,0.0931,0.0943,0.0948,0.0956,0.0959,0.0959,0.0972,0.097,0.0967,0.0961,0.0972,0.0977,0.0978,0.0955,0.0954,0.0954,0.0954,0,0,0.0899,0.0908,0.0911,0.0914,0.0922,0.0929,0.0938,0.0946,0.095,0.0957,0.0964,0.0975,0.0972,0.0977,0.0977,0.0983,0.0994,0.0979,0.0979,0.0981,0.1007,0.1008,0.101,0.0993,0.0993,0.0994,0.1006,0,0.0914,0.093,0.0932,0.0946,0.0954,0.0953,0.0961,0.0966,0.0968,0.0974,0.0977,0.0984,0.0981,0.0983,0.0989,0.0991,0.0999,0.0991,0.0999,0.0999,0.0996,0.1013,0.1014,0.1026,0.1008,0.1008,0.1008,0,0.0933,0.094,0.0956,0.0961,0.0964,0.0972,0.0978,0.0985,0.0991,0.0992,0.0997,0.0996,0.1005,0.0999,0.1011,0.1005,0.1008,0.101,0.101,0.101,0.1004,0.1012,0.103,0.1031,0.1011,0.1011,0.1011,0,0.0944,0.0957,0.0967,0.0971,0.0978,0.0983,0.0986,0.0991,0.0995,0.1001,0.1004,0.1011,0.1015,0.102,0.1021,0.1017,0.1032,0.1027,0.1032,0.1032,0.1035,0.1035,0.1053,0.1039,0.1039,0.1039,0.1039,0,0.096,0.0969,0.0972,0.0978,0.0988,0.099,0.0999,0.1002,0.1007,0.1013,0.1012,0.1018,0.102,0.1026,0.1027,0.1036,0.1038,0.1038,0.1038,0.1038,0.1037,0.1039,0.1038,0.1039,0.1039,0.1039,0.1039,0,0.0973,0.0975,0.0987,0.0993,0.0994,0.1001,0.1006,0.1011,0.1014,0.1022,0.1024,0.1027,0.1034,0.1036,0.1044,0.1045,0.1055,0.1054,0.1053,0.1052,0.1058,0.1057,0.1077,0.1079,0.1065,0.1065,0.1065,0,0.0982,0.0989,0.0995,0.1,0.1003,0.101,0.1015,0.1016,0.1021,0.1027,0.1032,0.1039,0.1044,0.1055,0.1058,0.1064,0.1064,0.107,0.1065,0.1064,0.1063,0.1062,0.1062,0.1071,0.1071,0.1071,0.1071,0,0.0998,0.0999,0.1005,0.1012,0.1017,0.1023,0.1028,0.1031,0.1034,0.1039,0.1046,0.105,0.1059,0.1065,0.1071,0.1074,0.1073,0.1073,0.1075,0.1074,0.1072,0.1072,0.1055,0.1073,0.1072,0.1072,0.1072,0.1072,0.1009,0.1014,0.1019,0.1026,0.1031,0.1035,0.1041,0.1043,0.105,0.1057,0.1057,0.1065,0.1069,0.1078,0.1081,0.1086,0.1084,0.1087,0.1087,0.1087,0.1087,0.1072,0.1087,0.1087,0.1087,0.1087,0.1087,0,0.1023,0.1027,0.1033,0.104,0.1046,0.1044,0.105,0.1054,0.1061,0.1066,0.1071,0.1079,0.1085,0.1088,0.1094,0.1098,0.1098,0.11,0.1099,0.1099,0.1089,0.1087,0.11,0.11,0.11,0.11,0.11,0.11,0.1032,0.1041,0.1042,0.1053,0.1056,0.1064,0.1067,0.1071,0.1074,0.1083,0.1088,0.1091,0.1094,0.1101,0.1106,0.1107,0.1109,0.1111,0.1111,0.1101,0.11,0.1099,0.1097,0.1111,0.1111,0.1121,0.1121,0.1121]},{"header":{"parameterUnit":"m.s-1","parameterCategory":1,"la1":30.2991,"la2":30.254,"lo1":-89.0895,"lo2":-89.0444,"dy":0.0017,"dx":0.0017,"nx":28,"ny":28,"refTime":"2025-04-17T09:00:00:Z","depth":0,"parameterNumber":3,"parameterNumberName":"V-component_of_WINDS"},"data":[0,0,0,0,0,0,0,0,0,0,0,0,0,0,0,0,0,0,0,0,0,0,0,0,0,0,0,0,0,0,0,0,0,0,0,0,0,0,0,0,0,0,0,0,0,0,0,0,0,0,0,0,0,0,0,0,0,0,1.9592,1.9592,0,1.9601,1.9601,1.9601,1.9538,1.9536,1.9534,1.9533,1.9542,1.9544,1.9546,0,0,0,0,0,0,0,0,0,0,0,0,0,1.9518,1.952,1.9592,1.9592,1.9592,1.9601,1.9601,1.9601,1.9538,1.9536,1.9534,1.9532,1.9542,1.9544,1.9546,0,0,0,0,0,0,0,0,0,0,0,0,0,1.9541,1.9521,1.9592,1.9562,1.9559,1.9601,1.9601,1.9601,1.9539,1.9536,1.9533,1.9531,1.9541,1.9544,1.9547,1.9618,0,0,1.9555,1.9557,0,0,0,0,0,0,0,0,1.954,1.9544,1.9566,1.9564,1.9561,1.9566,1.9579,1.9607,1.9539,1.9547,1.9533,1.953,1.9552,1.9554,1.9562,1.9619,1.9619,1.9556,1.9557,1.9559,1.956,0,0,0,0,0,0,0,1.9539,1.9543,1.9596,1.9567,1.9564,1.9547,1.9548,1.9584,1.9564,1.9546,1.9541,1.9543,1.955,1.9559,1.9562,1.9619,1.9556,1.9558,1.956,1.9561,1.9731,1.9734,0,0,0,0,0,0,1.9541,1.9542,1.9595,1.9596,1.9544,1.9551,1.9551,1.9567,1.9564,1.9561,1.9545,1.954,1.9556,1.9558,1.9562,1.9642,1.9559,1.9561,1.9563,1.9728,1.9732,1.9735,0,0,0,0,0,0,1.954,1.9546,1.9595,1.9568,1.9573,1.9555,1.9573,1.9569,1.9577,1.9564,1.956,1.9558,1.9554,1.9558,1.9604,1.9642,1.9563,1.9565,1.9725,1.9729,1.9733,1.9806,0,0,0,0,0,0,1.9538,1.9546,1.9574,1.9569,1.9575,1.9638,1.9576,1.9571,1.9582,1.9575,1.9574,1.9571,1.9552,1.96,1.9607,1.9644,1.9568,1.9721,1.9727,1.9732,1.98,1.9813,1.9823,0,0,0,0,0,1.9535,1.9595,1.9576,1.9583,1.9609,1.964,1.9643,1.9619,1.9586,1.9613,1.9603,1.9572,1.9637,1.9605,1.9612,1.9652,1.9719,1.9725,1.9731,1.9795,1.981,1.9823,0,0,0,0,0,0,1.9606,1.9594,1.9572,1.9632,1.9638,1.9629,1.9663,1.9636,1.9651,1.9645,1.9614,1.9614,1.9665,1.9663,1.9628,1.9719,1.9672,1.968,1.9718,1.9732,1.9743,1.9742,1.957,0,0,0,0,0,1.9629,1.9655,1.9643,1.9697,1.9701,1.9682,1.9695,1.9675,1.968,1.9682,1.9676,1.9681,1.9702,1.9717,1.9736,1.98,1.9797,1.983,1.9842,1.9851,1.9858,1.9888,1.9902,1.9755,1.9755,1.9755,0,0,1.9676,1.9672,1.9691,1.9711,1.9713,1.974,1.9684,1.9716,1.9736,1.9687,1.9729,1.9725,1.9728,1.9783,1.9807,1.9783,1.9898,1.9859,1.9866,1.9868,1.9896,1.991,1.9922,1.976,1.9759,1.9758,0,0,1.9775,1.9776,1.9819,1.9821,1.9824,1.9811,1.9821,1.9816,1.9811,1.9853,1.9816,1.9838,1.9877,1.988,1.9887,1.9983,1.9954,1.9991,2.0049,2.0079,2.0091,2.0101,2.0133,2.0145,1.9998,1.9998,1.9998,0,1.9833,1.9873,1.9845,1.9879,1.9887,1.9843,1.9886,1.9889,1.9899,1.9906,1.9879,1.9923,1.9923,1.9976,1.9999,2.0007,2.0017,1.999,2.0091,2.0101,2.011,2.014,2.0153,2.0002,2.0002,2.0001,2.0001,0,1.9942,1.997,2.0005,2.0013,2.0026,2.0065,2.0042,2.0058,2.0037,2.0026,2.0067,2.0065,2.0081,2.0093,2.0074,2.0142,2.0127,2.0097,2.0049,2.0129,2.0156,2.0168,2.0008,2.0007,2.0006,2.0005,0,0,2.0088,2.0078,2.0091,2.0093,2.0091,2.0112,2.0147,2.0163,2.0176,2.0183,2.0211,2.0243,2.0213,2.0221,2.0201,2.0228,2.0301,2.0193,2.0193,2.0212,2.0374,2.0396,2.041,2.0282,2.0284,2.0286,2.0373,0,2.0182,2.0242,2.0216,2.0278,2.0301,2.0258,2.0288,2.029,2.028,2.0298,2.0287,2.0309,2.027,2.0274,2.0298,2.0287,2.0333,2.0281,2.0306,2.0307,2.0305,2.0425,2.0449,2.0532,2.0384,2.0386,2.0387,0,2.0301,2.0311,2.0375,2.0366,2.0375,2.0403,2.0412,2.0431,2.0431,2.0422,2.0429,2.0402,2.0435,2.0388,2.0431,2.0396,2.0405,2.0401,2.0403,2.0403,2.0351,2.0427,2.0558,2.057,2.0405,2.0403,2.0402,0,2.0398,2.0428,2.0468,2.0472,2.0463,2.0483,2.048,2.0478,2.0487,2.0496,2.0502,2.0515,2.0522,2.0532,2.0509,2.0478,2.0555,2.0507,2.0547,2.0547,2.0564,2.0563,2.0697,2.0573,2.0573,2.0572,2.0572,0,2.0506,2.0546,2.0511,2.0536,2.0579,2.0549,2.0591,2.0584,2.0582,2.0604,2.0568,2.0589,2.0558,2.0576,2.0558,2.0595,2.0599,2.0592,2.0586,2.0594,2.0595,2.0598,2.0592,2.0576,2.0575,2.0574,2.0574,0,2.0621,2.06,2.0641,2.0628,2.0626,2.0657,2.0646,2.0668,2.0654,2.0682,2.0687,2.0666,2.0685,2.0663,2.0681,2.0669,2.0718,2.0706,2.0718,2.0714,2.0754,2.075,2.0893,2.091,2.0777,2.0779,2.078,0,2.069,2.0719,2.0709,2.072,2.0719,2.0739,2.0748,2.0719,2.0729,2.073,2.0752,2.0767,2.0778,2.081,2.0796,2.0809,2.0795,2.0844,2.0797,2.0803,2.0793,2.0791,2.0793,2.0854,2.0855,2.0857,2.0858,0,2.0815,2.0802,2.0816,2.0826,2.0837,2.0843,2.0847,2.0859,2.0828,2.0842,2.086,2.0868,2.0885,2.09,2.0908,2.0905,2.0876,2.0873,2.0882,2.089,2.0895,2.0891,2.0743,2.0869,2.0868,2.0867,2.0867,2.0866,2.0908,2.093,2.0926,2.0941,2.0941,2.0944,2.0963,2.0951,2.0965,2.0976,2.0958,2.098,2.0977,2.0985,2.0984,2.1001,2.098,2.0994,2.0998,2.1001,2.1006,2.0893,2.1003,2.1002,2.1002,2.1002,2.1001,0,2.1029,2.1023,2.1037,2.1042,2.1054,2.1025,2.1027,2.1039,2.1058,2.1058,2.1068,2.1088,2.1102,2.1088,2.1099,2.1115,2.1102,2.1119,2.1117,2.1116,2.1026,2.1015,2.1129,2.1129,2.1129,2.1129,2.1129,2.1129,2.1093,2.1128,2.1115,2.1149,2.1142,2.1163,2.1166,2.1169,2.1167,2.119,2.1201,2.1192,2.1185,2.1195,2.1206,2.1202,2.1207,2.1228,2.1219,2.1135,2.1122,2.111,2.11,2.123,2.123,2.1307,2.1308,2.1308]}]]